Regional Weather Roundup
Issued by NWS

Home | Current Version | Previous Version | Text Only | Print | Product List | Glossary On
Versions: 1 2 3 4 5 6 7 8 9 10 11 12 13 14 15 16 17 18 19 20 21 22 23 24 25 26 27 28 29 30 31 32 33 34 35 36 37 38 39 40 41 42 43 44 45 46 47 48 49 50
000
ASUS45 KABQ 051110
RWRNM
NEW MEXICO REGIONAL WEATHER ROUNDUP
NATIONAL WEATHER SERVICE ALBUQUERQUE NM
500 AM MDT WED AUG 05 2015

NOTE: "FAIR" MEANS FEW OR NO CLOUDS BELOW 12,000 FEET AGL WITH NO
       SIGNIFICANT WEATHER OR OBSTRUCTIONS TO VISION.

      THIS PRODUCT IS RELEASED AS TWO VERSIONS.  ONE VERSION NEAR
      THE TOP OF THE HOUR CONTAINING PRELIMINARY DATA FROM ALBUQUERQUE
      AND OTHER STATIONS.  A FINAL VERSION WITH ADDITIONAL DATA IS
      ISSUED ABOUT 10 MINUTES AFTER THE HOUR.

NMZ501-503-504-510>518-051200-
NORTHWEST PLATEAU/NORTHCENTRAL MOUNTAINS

CITY           SKY/WX    TMP DP  RH WIND       PRES   REMARKS
FARMINGTON     CLEAR     61  44  53 E7        30.20R
LOS ALAMOS     CLEAR     68  33  27 CALM      30.33R
SANTA FE       CLEAR     60  41  49 N14       30.25R
TAOS           CLEAR     50  36  57 N5        30.34R
ANGEL FIRE     FAIR      39  38  93 CALM      30.44S

$$
NMZ402-403-502-505>509-051200-
WESTCENTRAL MOUNTAINS/SOUTHWEST MOUNTAINS

CITY           SKY/WX    TMP DP  RH WIND       PRES   REMARKS
GALLUP         PTCLDY    53  43  68 NE5       30.29S
GRANTS         CLEAR     53  48  84 CALM      30.32R
SILVER CITY      N/A     64  52  63 NW10      30.19S

$$
NMZ407-409-411-412-051200-
SOUTHERN DESERTS

CITY           SKY/WX    TMP DP  RH WIND       PRES   REMARKS
LORDSBURG      FAIR      70  45  40 W3        30.10S
DEMING         PTCLDY    69  58  67 CALM      30.09R
LAS CRUCES     PTCLDY    71  62  75 SE3       30.10S
HOLLOMAN AFB   CLEAR     69  46  42 NW1       30.06R
ALAMOGORDO     CLEAR     73  46  38 W5        30.08R
T OR C         CLEAR     74  51  44 W9        30.12R

$$
NMZ519>523-051200-
CENTRAL VALLEYS/CENTRAL HIGHLANDS

CITY           SKY/WX    TMP DP  RH WIND       PRES   REMARKS
ALBUQUERQUE    CLEAR     71  43  36 N6        30.18S
DOUBLE EAGLE   CLEAR     56  48  75 NW3       30.22S
MORIARTY ARPT    N/A     51  47  86 N3        30.26R
CLINES CORNERS CLEAR     62  41  46 NW8       30.28S
BELEN          FAIR      60  44  55 S5        30.18R
SOCORRO        FAIR      67  50  53 NW10      30.14R

$$
NMZ524>526-539-540-051200-
SOUTHCENTRAL MOUNTAINS

CITY           SKY/WX    TMP DP  RH WIND       PRES   REMARKS
RUIDOSO          N/A    N/A N/A N/A MISG        N/A

$$
NMZ527>531-051200-
NORTHEAST HIGHLANDS/NORTHEAST PLAINS

CITY           SKY/WX    TMP DP  RH WIND       PRES   REMARKS
RATON          CLEAR     55  50  83 E8        30.22S
CLAYTON        PTCLDY    68  56  65 NW17G23   30.08F

$$
NMZ532>537-051200-
EASTCENTRAL PLAINS

CITY           SKY/WX    TMP DP  RH WIND       PRES   REMARKS
TUCUMCARI      CLEAR     69  58  67 W9        30.01R
CANNON AFB     CLEAR     69  57  64 SW8       30.07R
CLOVIS AIRPORT CLEAR     66  57  72 SW9       30.08S

$$
NMZ028-029-538-051200-
SOUTHEAST PLAINS

CITY           SKY/WX    TMP DP  RH WIND       PRES   REMARKS
ROSWELL        CLEAR     68  58  70 S6        30.03R
ARTESIA        CLEAR     72  59  64 W3        30.04R
CARLSBAD       CLEAR     71  53  52 CALM      30.00S
HOBBS            N/A     72  63  73 S8        30.06S


$$


USA.gov is the U.S. government's official web portal to all federal, state and local government web resources and services.